{"data":{"norad_id":68782,"epoch":"2026-05-25T04:00:03.998880Z","epoch_age_seconds":71324,"freshness":"FRESH","line1":"1 68782U 26086S   26145.16671295 -.01907184  00000+0 -25868-1 0  9999","line2":"2 68782  97.2849 182.0168 0001336  85.3348 243.8042 15.60862058  6079","mean_motion":15.60862058,"eccentricity":0.0001336,"inclination_deg":97.2849,"raan_deg":182.0168,"arg_perigee_deg":85.3348,"mean_anomaly_deg":243.8042,"bstar":-0.025868,"rev_number":607,"period_min":92.256711130844,"perigee_km":384.26212644632,"apogee_km":386.06928092874,"semimajor_km":6763.3027036875,"source":"CELESTRAK","updated_at":"2026-05-25T13:38:22.037497Z"}}